This is the latest recevied weather packets stored in our database for station/object LX0APE-4. If no packets are shown the sender has not sent any weather packets the latest 10 day(s).
| Time | Temp. | Humidity | Pressure | Rain* | Wind** | Luminosity | Snow |
|---|---|---|---|---|---|---|---|
| 1777700220 | 13.33° C | 47% | 5018.8 hPa | 0 mm | - | - | - |
| 1777699920 | 13.89° C | 47% | 5018.6 hPa | 0 mm | - | - | - |
| 1777699620 | 13.89° C | 47% | 5018.4 hPa | 0 mm | - | - | - |
| 1777699320 | 13.33° C | 47% | 5018.4 hPa | 0 mm | - | - | - |
| 1777699020 | 13.33° C | 48% | 5018.1 hPa | 0 mm | - | - | - |
| 1777698720 | 12.78° C | 48% | 5018.2 hPa | 0 mm | - | - | - |
| 1777698420 | 12.78° C | 48% | 5018 hPa | 0 mm | - | - | - |
| 1777698120 | 12.78° C | 48% | 5018 hPa | 0 mm | - | - | - |
| 1777697820 | 12.22° C | 48% | 5018.2 hPa | 0 mm | - | - | - |
| 1777697524 | 12.22° C | 49% | 5018.1 hPa | 0 mm | - | - | - |
| 1777697520 | 12.22° C | 49% | 5018.1 hPa | 0 mm | - | - | - |
| 1777697220 | 12.22° C | 49% | 5018.2 hPa | 0 mm | - | - | - |
| 1777696920 | 11.67° C | 50% | 5018.1 hPa | 0 mm | - | - | - |
| 1777696620 | 11.11° C | 51% | 5018 hPa | 0 mm | - | - | - |
| 1777696320 | 11.11° C | 52% | 5018 hPa | 0 mm | - | - | - |
| 1777696020 | 10.56° C | 52% | 5018.1 hPa | 0 mm | - | - | - |
| 1777695720 | 10.56° C | 53% | 5017.9 hPa | 0 mm | - | - | - |
| 1777695420 | 10.56° C | 53% | 5018 hPa | 0 mm | - | - | - |
| 1777695120 | 10.56° C | 53% | 5017.8 hPa | 0 mm | - | - | - |
| 1777694820 | 10.56° C | 53% | 5018 hPa | 0 mm | - | - | - |
| 1777694520 | 10.56° C | 52% | 5017.8 hPa | 0 mm | - | - | - |
| 1777694220 | 11.11° C | 51% | 5017.9 hPa | 0 mm | - | - | - |
| 1777693924 | 11.67° C | 50% | 5018.1 hPa | 0 mm | - | - | - |
| 1777693920 | 11.67° C | 50% | 5018.1 hPa | 0 mm | - | - | - |
| 1777693620 | 11.67° C | 49% | 5018 hPa | 0 mm | - | - | - |
* Rain latest hour (hover to see other rain measurements)
** Current wind speed in m/s (hover to see current wind gust speed)